Regional Weather Roundup
Issued by NWS Midland/Odessa, TX

Home | Current Version | Previous Version | Text Only | Print | Product List | Glossary On
Versions: 1 2 3 4 5 6 7 8 9 10 11 12 13 14 15 16 17 18 19 20 21 22 23 24 25 26 27 28 29 30 31 32 33 34 35 36 37 38 39 40 41 42 43 44 45 46 47 48 49 50
000
ASUS44 KMAF 260301
RWRMAF
MIDLAND AREA WEATHER ROUNDUP
NATIONAL WEATHER SERVICE MIDLAND TX
1000 PM CDT TUE JUL 25 2017

...IN SOUTHWEST TEXAS AND SOUTHEAST NEW MEXICO...

CITY           SKY/WX    TMP DP  RH WIND       PRES   REMARKS
ALPINE         CLEAR     79  58  49 SE8       30.22R
ANDREWS        FAIR      85  59  41 S8        30.09R
ARTESIA        CLEAR     88  59  37 S9        30.05S
BIG SPRING     CLEAR     87  60  39 SE10      30.09R
CARLSBAD       CLOUDY    82  65  56 S8        30.03R
DRYDEN           N/A     87  62  43 E10       30.01R
FORT STOCKTON  CLEAR     85  63  47 SE14      30.07R
GUAD PASS      CLOUDY    78  57  48 NE8       30.24R
HOBBS          CLEAR     84  55  37 SE12      30.11R
MARFA          NOT AVBL
MIDLAND AIRPK  CLEAR     88  59  37 S8        30.08R
MIDLAND INTL   CLEAR     87  60  40 S9        30.07R
ODESSA         CLEAR     88  58  36 S12       30.09R
PECOS          CLEAR     90  59  35 E15       30.02R
PRESIDIO       FAIR      91  57  31 NE3       30.02R
SEMINOLE       CLEAR     84  58  41 S8        30.10R
SNYDER         CLEAR     88  64  44 SE9       30.06R
WINK           CLEAR     88  57  34 SE12      30.03R
$$
...OTHER STATIONS IN TEXAS...

CITY           SKY/WX    TMP DP  RH WIND       PRES   REMARKS
ABILENE        CLEAR     85  63  47 SE8       30.04R
AMARILLO       PTCLDY    86  58  38 S15       30.07S
AUSTIN         CLEAR     88  70  55 S16       30.05R
BROWNSVILLE    CLEAR     77  71  82 SE10      30.04R
CORPUS CHRISTI MOCLDY    83  76  79 SE12      30.04R
DALLAS FTW     CLEAR     90  70  51 SE15      30.01R
DEL RIO        MOCLDY    93  66  40 SE21G31   29.97R
EL PASO        MOCLDY    90  57  32 W8        30.08R
HOUSTON INT    MOCLDY    85  75  72 S9        30.08R
LUBBOCK        PTCLDY    87  60  40 S15       30.07R
SAN ANGELO     CLEAR     85  60  42 SE3       30.03R
SAN ANTONIO    PTCLDY    87  70  56 SE18G31   30.06R
WACO           CLEAR     89  70  53 SE15      30.02R
WICHITA FALLS  NOT AVBL
$$
...OTHER LOCATIONS IN NEW MEXICO...

CITY           SKY/WX    TMP DP  RH WIND       PRES   REMARKS
ALAMOGORDO     CLEAR     82  54  36 S5        30.11R
ALBUQUERQUE    CLOUDY    82  57  42 NW9       30.19R
CANNON AFB     CLOUDY    81  57  44 S9        30.13R
CLOVIS         CLEAR     80  58  46 S12       30.13R
HOLLOMAN AFB   CLEAR     88  56  33 S9        30.10R
ROSWELL        CLEAR     90  56  31 S14       30.05R
RUIDOSO        CLEAR     72  57  60 CALM      30.34R
SANTA FE       CLOUDY    77  57  50 CALM      30.25R
TRUTH OR CONSE PTCLDY    86   3   4 S7        30.13R
TUCUMCARI      PTCLDY    88  57  34 S16       30.04R
$$




USA.gov is the U.S. government's official web portal to all federal, state and local government web resources and services.